Acquafredda, Italy

1:41 PM CET on January 24, 2017 (GMT +0100)
Montichiari

Weather History for LIPO - December, 2012

Change the Weather History Date:

Monday, December 10, 2012

  Actual Average (LIPL) Record (LIPL)
Temperature  
Mean Temperature 29 °F -  
Max Temperature 35 °F 44 °F 53 °F (2000)
Min Temperature 23 °F 31 °F 21 °F (2012)
Degree Days  
Heating Degree Days 36    
Moisture  
Dew Point 24 °F    
Average Humidity 85    
Maximum Humidity 100    
Minimum Humidity 70    
Precipitation  
Precipitation 0.00 in - - ()
Sea Level Pressure  
Sea Level Pressure 29.82 in    
Wind  
Wind Speed 4 mph ()    
Max Wind Speed 7 mph    
Max Gust Speed -    
Visibility 4.5 miles    
Events      
Averages and records for this station are not official NWS values.
T = Trace of Precipitation, MM = Missing Value Source: Averaged Metar Reports

Daily Weather History Graph

Daily Weather History Graph

Search for Another Location

Airport or City:

Trip Planner

Search our weather history database for the weather conditions in past years. The results will help you decide how hot, cold, wet, or windy it might be!

Date:

Astronomy

Dec. 10, 2012 Rise Set
Actual Time 7:47 AM CET 4:35 PM CET
Civil Twilight 7:13 AM CET 5:09 PM CET
Nautical Twilight 6:36 AM CET 5:46 PM CET
Astronomical Twilight 6:00 AM CET 6:22 PM CET
Moon 4:04 AM CET (12/10) 2:17 PM CET (12/10)
Length of Visible Light 9h 55m
Length of Day
8h 47m
Waning Crescent, 12% of the Moon is Illuminated
Dec 10
Waning Crescent
Dec 13
New
Dec 20
First Quarter
Dec 28
Full
Jan 5
Last Quarter

Hourly Weather History & Observations

Time (CET) Temp. Windchill Dew Point Humidity Pressure Visibility Wind Dir Wind Speed Gust Speed Precip Events Conditions
12:50 AM 24.8 °F 17.9 °F 24.8 °F 100% 29.92 in 1.2 mi NNE 5.8 mph - N/A   Mist
1:50 AM 24.8 °F 16.9 °F 23.0 °F 93% 29.89 in - NNE 6.9 mph - N/A   Clear
2:50 AM 24.8 °F 17.9 °F 21.2 °F 86% 29.89 in - NE 5.8 mph - N/A   Clear
3:50 AM 24.8 °F 17.9 °F 21.2 °F 86% 29.86 in - NE 5.8 mph - N/A   Clear
4:50 AM 24.8 °F 19.1 °F 21.2 °F 86% 29.86 in 5.0 mi SE 4.6 mph - N/A   Scattered Clouds
5:50 AM 26.6 °F 22.6 °F 24.8 °F 93% 29.83 in 3.1 mi East 3.5 mph - N/A   Scattered Clouds
6:50 AM 24.8 °F - 24.8 °F 100% 29.83 in 1.2 mi NE 2.3 mph - N/A   Partly Cloudy
7:50 AM 24.8 °F 17.9 °F 23.0 °F 93% 29.83 in 5.0 mi NE 5.8 mph - N/A   Partly Cloudy
8:50 AM 28.4 °F 24.6 °F 24.8 °F 86% 29.83 in 6.2 mi ENE 3.5 mph - N/A   Partly Cloudy
9:50 AM 30.2 °F - 24.8 °F 80% 29.83 in 6.2 mi NE 2.3 mph - N/A   Partly Cloudy
10:50 AM 35.6 °F - 26.6 °F 70% 29.80 in 6.2 mi SSE 2.3 mph - N/A   Partly Cloudy
11:50 AM 35.6 °F - 26.6 °F 70% 29.77 in 6.2 mi South 2.3 mph - N/A   Partly Cloudy
12:50 PM 30.2 °F 25.4 °F 26.6 °F 86% 29.77 in 4.3 mi NW 4.6 mph - N/A   Partly Cloudy
1:50 PM 32.0 °F 28.7 °F 26.6 °F 80% 29.77 in 3.7 mi West 3.5 mph - N/A   Partly Cloudy
2:50 PM 32.0 °F 28.7 °F 26.6 °F 80% 29.77 in 4.3 mi NW 3.5 mph - N/A   Partly Cloudy
3:50 PM 32.0 °F - 24.8 °F 75% 29.77 in - WNW 2.3 mph - N/A   Clear
4:50 PM 28.4 °F 22.2 °F 24.8 °F 86% 29.77 in 4.3 mi Variable 5.8 mph - N/A   Scattered Clouds
5:50 PM 28.4 °F - 23.0 °F 80% 29.77 in 5.0 mi NNE 1.2 mph - N/A   Partly Cloudy
6:50 PM 30.2 °F 25.4 °F 23.0 °F 75% 29.80 in 5.0 mi WNW 4.6 mph - N/A   Unknown
7:50 PM 26.6 °F 20.0 °F 23.0 °F 86% 29.80 in 5.0 mi NE 5.8 mph - N/A   Unknown
8:50 PM 24.8 °F - 21.2 °F 86% 29.83 in 5.0 mi NE 2.3 mph - N/A   Unknown
9:50 PM 23.0 °F 15.8 °F 21.2 °F 93% 29.83 in 5.0 mi NW 5.8 mph - N/A   Unknown
10:50 PM 23.0 °F 17.0 °F 21.2 °F 93% 29.83 in - Variable 4.6 mph - N/A   Clear
11:50 PM 24.8 °F 20.5 °F 19.4 °F 80% 29.86 in - NNW 3.5 mph - N/A   Clear